sat.trackr.live / text

‹ back to catalog

NAPA-2

NORAD 48963 · 2021-059CN

PAYLOAD ACTIVE UNKNOWN

§ Identity

Operator
Country
THAI
Launch date
2021-06-30
Launch site
AFETR
Launch vehicle
Mass (kg)
RCS (m²)

External: N2YO · Heavens-Above · Gunter

§ Orbital elements

Epoch: 2026-05-25T03:44:21.966720Z

Period
90.66 min
Inclination
97.6769°
Eccentricity
0.0000798
Mean motion
15.88341898 rev/d
Perigee alt
306.4 km
Apogee alt
307.5 km
Semi-major
6,685.1 km
B*
7.2756e-4
RAAN
341.2220°
Arg perigee
105.3969°
Mean anomaly
254.7390°
Rev number
27,414

§ Raw data

NAPA-21 48963U 21059CN  26145.15580980  .00203678  00000+0  72756-3 0  99962 48963  97.6769 341.2220 0000798 105.3969 254.7390 15.88341898274140

JSON: /api/v1/satellites/48963 · /tle

For live sub-satellite position, see the globe view (requires WebGL).

§ Visibility from observer

Set your observer location to see the next 7 days of passes ≥ 10°. The values pass through the URL so the page stays shareable.

No JS? Fill the form by hand. The geolocation button needs JavaScript.

§ Radio — SatNOGS DB

ModeDescriptionDownlinkUplink
BPSK UHF 1k2 BPSK Telemetry 401.124 MHz

1 transmitter · refreshed weekly from db.satnogs.org